contact:dominique.lefevre@mio.osupytheas.fr, maurice.libes@osupytheas.fr, didier.mallarino@osupytheas.fr
Project:EMSO http://www.emso-fr.org/EMSO-France
Depth: 2436.0 m
Title:EMSO Ligure Ouest : Data MII capteur MICROCAT
DateTime_Computer,Latitude,Longitude,Temperature,Conductivity,Pressure,DateTime_Instrument
DateTime_Computer,Latitude,Longitude,degC,S m-1,dbar,DateTime_Instrument
2022-05-01T00:01:06Z,42.805,6.029,13.2995,4.60034,2470.18,2022-5-01T02:02:46Z
2022-05-01T00:04:09Z,42.805,6.029,13.2995,4.60034,2470.18,2022-5-01T02:05:49Z
2022-05-01T00:07:12Z,42.805,6.029,13.2995,4.60034,2470.18,2022-5-01T02:08:52Z
2022-05-01T00:10:16Z,42.805,6.029,13.2993,4.60034,2470.194,2022-5-01T02:11:55Z
2022-05-01T00:13:19Z,42.805,6.029,13.2998,4.60033,2470.18,2022-5-01T02:14:58Z
2022-05-01T00:16:22Z,42.805,6.029,13.2998,4.60035,2470.171,2022-5-01T02:18:02Z
2022-05-01T00:19:25Z,42.805,6.029,13.2998,4.60033,2470.194,2022-5-01T02:21:05Z
2022-05-01T00:22:28Z,42.805,6.029,13.2996,4.60034,2470.194,2022-5-01T02:24:08Z
2022-05-01T00:25:31Z,42.805,6.029,13.2998,4.60033,2470.203,2022-5-01T02:27:11Z
2022-05-01T00:28:34Z,42.805,6.029,13.2996,4.60034,2470.18,2022-5-01T02:30:14Z
2022-05-01T00:31:37Z,42.805,6.029,13.2996,4.60034,2470.18,2022-5-01T02:33:17Z
2022-05-01T00:34:41Z,42.805,6.029,13.2999,4.60035,2470.156,2022-5-01T02:36:20Z
2022-05-01T00:37:44Z,42.805,6.029,13.3000,4.60035,2470.156,2022-5-01T02:39:23Z
2022-05-01T00:40:47Z,42.805,6.029,13.2998,4.60034,2470.156,2022-5-01T02:42:27Z
2022-05-01T00:43:50Z,42.805,6.029,13.2998,4.60033,2470.119,2022-5-01T02:45:30Z
2022-05-01T00:46:53Z,42.805,6.029,13.2996,4.60034,2470.18,2022-5-01T02:48:33Z
2022-05-01T00:49:56Z,42.805,6.029,13.2996,4.60033,2470.18,2022-5-01T02:51:36Z
2022-05-01T00:52:59Z,42.805,6.029,13.2996,4.60034,2470.18,2022-5-01T02:54:39Z
2022-05-01T00:56:02Z,42.805,6.029,13.2998,4.60035,2470.171,2022-5-01T02:57:42Z
2022-05-01T00:59:05Z,42.805,6.029,13.2998,4.60036,2470.18,2022-5-01T03:00:45Z
2022-05-01T01:02:09Z,42.805,6.029,13.2998,4.60035,2470.156,2022-5-01T03:03:48Z
2022-05-01T01:05:12Z,42.805,6.029,13.2994,4.60033,2470.156,2022-5-01T03:06:51Z
2022-05-01T01:08:15Z,42.805,6.029,13.2995,4.60033,2470.133,2022-5-01T03:09:55Z
2022-05-01T01:11:18Z,42.805,6.029,13.2999,4.60034,2470.156,2022-5-01T03:12:58Z
2022-05-01T01:14:21Z,42.805,6.029,13.2996,4.60033,2470.171,2022-5-01T03:16:01Z
2022-05-01T01:17:24Z,42.805,6.029,13.2997,4.60034,2470.147,2022-5-01T03:19:04Z
2022-05-01T01:20:27Z,42.805,6.029,13.2999,4.60036,2470.156,2022-5-01T03:22:07Z
2022-05-01T01:23:30Z,42.805,6.029,13.2995,4.60034,2470.18,2022-5-01T03:25:10Z
2022-05-01T01:26:34Z,42.805,6.029,13.2998,4.60035,2470.217,2022-5-01T03:28:13Z
2022-05-01T01:29:37Z,42.805,6.029,13.2998,4.60035,2470.171,2022-5-01T03:31:16Z
2022-05-01T01:32:40Z,42.805,6.029,13.2998,4.60033,2470.18,2022-5-01T03:34:19Z
2022-05-01T01:35:43Z,42.805,6.029,13.2997,4.60035,2470.156,2022-5-01T03:37:23Z
2022-05-01T01:38:46Z,42.805,6.029,13.2998,4.60034,2470.18,2022-5-01T03:40:26Z
2022-05-01T01:41:49Z,42.805,6.029,13.2998,4.60034,2470.124,2022-5-01T03:43:29Z
2022-05-01T01:44:52Z,42.805,6.029,13.3001,4.60035,2470.119,2022-5-01T03:46:32Z
2022-05-01T01:47:55Z,42.805,6.029,13.2997,4.60034,2470.18,2022-5-01T03:49:35Z
2022-05-01T01:50:58Z,42.805,6.029,13.2994,4.60035,2470.171,2022-5-01T03:52:38Z
2022-05-01T01:54:02Z,42.805,6.029,13.2998,4.60034,2470.171,2022-5-01T03:55:41Z
2022-05-01T01:57:05Z,42.805,6.029,13.3000,4.60034,2470.133,2022-5-01T03:58:44Z
2022-05-01T02:00:08Z,42.805,6.029,13.2996,4.60037,2470.147,2022-5-01T04:01:48Z
2022-05-01T02:03:11Z,42.805,6.029,13.2996,4.60033,2470.171,2022-5-01T04:04:51Z
2022-05-01T02:06:14Z,42.805,6.029,13.2997,4.60035,2470.156,2022-5-01T04:07:54Z
2022-05-01T02:09:17Z,42.805,6.029,13.2995,4.60034,2470.133,2022-5-01T04:10:57Z
2022-05-01T02:12:20Z,42.805,6.029,13.2996,4.60034,2470.156,2022-5-01T04:14:00Z
2022-05-01T02:15:23Z,42.805,6.029,13.2999,4.60035,2470.18,2022-5-01T04:17:03Z
2022-05-01T02:18:26Z,42.805,6.029,13.2996,4.60033,2470.156,2022-5-01T04:20:06Z
2022-05-01T02:21:30Z,42.805,6.029,13.2993,4.60033,2470.171,2022-5-01T04:23:09Z
2022-05-01T02:24:33Z,42.805,6.029,13.2996,4.60034,2470.156,2022-5-01T04:26:12Z
2022-05-01T02:27:36Z,42.805,6.029,13.2998,4.60035,2470.171,2022-5-01T04:29:16Z
2022-05-01T02:30:39Z,42.805,6.029,13.2992,4.60035,2470.171,2022-5-01T04:32:19Z
2022-05-01T02:33:42Z,42.805,6.029,13.3002,4.60035,2470.18,2022-5-01T04:35:22Z
2022-05-01T02:36:45Z,42.805,6.029,13.2996,4.60034,2470.156,2022-5-01T04:38:25Z
2022-05-01T02:39:48Z,42.805,6.029,13.2996,4.60034,2470.156,2022-5-01T04:41:28Z
2022-05-01T02:42:51Z,42.805,6.029,13.3000,4.60033,2470.156,2022-5-01T04:44:31Z
2022-05-01T02:45:55Z,42.805,6.029,13.2995,4.60033,2470.171,2022-5-01T04:47:34Z
2022-05-01T02:48:58Z,42.805,6.029,13.2999,4.60033,2470.166,2022-5-01T04:50:37Z
2022-05-01T02:52:01Z,42.805,6.029,13.2993,4.60033,2470.194,2022-5-01T04:53:41Z
2022-05-01T02:55:04Z,42.805,6.029,13.2999,4.60033,2470.217,2022-5-01T04:56:44Z
2022-05-01T02:58:07Z,42.805,6.029,13.2998,4.60033,2470.203,2022-5-01T04:59:47Z
2022-05-01T03:01:10Z,42.805,6.029,13.2996,4.60033,2470.18,2022-5-01T05:02:50Z
2022-05-01T03:04:13Z,42.805,6.029,13.2996,4.60035,2470.194,2022-5-01T05:05:53Z
2022-05-01T03:07:16Z,42.805,6.029,13.2997,4.60033,2470.18,2022-5-01T05:08:56Z
2022-05-01T03:10:19Z,42.805,6.029,13.2994,4.60033,2470.203,2022-5-01T05:11:59Z
2022-05-01T03:13:23Z,42.805,6.029,13.2993,4.60033,2470.18,2022-5-01T05:15:02Z
2022-05-01T03:16:26Z,42.805,6.029,13.2998,4.60033,2470.171,2022-5-01T05:18:05Z
2022-05-01T03:19:29Z,42.805,6.029,13.2996,4.60035,2470.18,2022-5-01T05:21:09Z
2022-05-01T03:22:32Z,42.805,6.029,13.2997,4.60033,2470.217,2022-5-01T05:24:12Z
2022-05-01T03:25:35Z,42.805,6.029,13.2998,4.60034,2470.203,2022-5-01T05:27:15Z
2022-05-01T03:28:38Z,42.805,6.029,13.2992,4.60034,2470.217,2022-5-01T05:30:18Z
2022-05-01T03:31:41Z,42.805,6.029,13.2996,4.60034,2470.203,2022-5-01T05:33:21Z
2022-05-01T03:34:44Z,42.805,6.029,13.2996,4.60034,2470.203,2022-5-01T05:36:24Z
2022-05-01T03:37:48Z,42.805,6.029,13.2999,4.60033,2470.217,2022-5-01T05:39:27Z
2022-05-01T03:40:51Z,42.805,6.029,13.2996,4.60033,2470.217,2022-5-01T05:42:30Z
2022-05-01T03:43:54Z,42.805,6.029,13.2997,4.60033,2470.203,2022-5-01T05:45:33Z
2022-05-01T03:46:57Z,42.805,6.029,13.2998,4.60035,2470.203,2022-5-01T05:48:37Z
2022-05-01T03:50:00Z,42.805,6.029,13.2997,4.60034,2470.217,2022-5-01T05:51:40Z
2022-05-01T03:53:03Z,42.805,6.029,13.2997,4.60034,2470.194,2022-5-01T05:54:43Z
2022-05-01T03:56:06Z,42.805,6.029,13.2996,4.60035,2470.24,2022-5-01T05:57:46Z
2022-05-01T03:59:09Z,42.805,6.029,13.2994,4.60035,2470.227,2022-5-01T06:00:49Z
2022-05-01T04:02:12Z,42.805,6.029,13.2996,4.60033,2470.217,2022-5-01T06:03:52Z
2022-05-01T04:05:16Z,42.805,6.029,13.2995,4.60033,2470.24,2022-5-01T06:06:55Z
2022-05-01T04:08:19Z,42.805,6.029,13.2995,4.60034,2470.203,2022-5-01T06:09:58Z
2022-05-01T04:11:22Z,42.805,6.029,13.3000,4.60035,2470.25,2022-5-01T06:13:02Z
2022-05-01T04:14:25Z,42.805,6.029,13.2997,4.60034,2470.264,2022-5-01T06:16:05Z
2022-05-01T04:17:28Z,42.805,6.029,13.3000,4.60034,2470.203,2022-5-01T06:19:08Z
2022-05-01T04:20:31Z,42.805,6.029,13.2998,4.60034,2470.273,2022-5-01T06:22:11Z
2022-05-01T04:23:34Z,42.805,6.029,13.2998,4.60033,2470.264,2022-5-01T06:25:14Z
2022-05-01T04:26:37Z,42.805,6.029,13.2997,4.60034,2470.25,2022-5-01T06:28:17Z
2022-05-01T04:29:40Z,42.805,6.029,13.2996,4.60033,2470.287,2022-5-01T06:31:20Z
2022-05-01T04:32:44Z,42.805,6.029,13.2997,4.60033,2470.264,2022-5-01T06:34:23Z
2022-05-01T04:35:47Z,42.805,6.029,13.2996,4.60035,2470.273,2022-5-01T06:37:26Z
2022-05-01T04:38:50Z,42.805,6.029,13.2995,4.60033,2470.32,2022-5-01T06:40:30Z
2022-05-01T04:41:53Z,42.805,6.029,13.2997,4.60033,2470.287,2022-5-01T06:43:33Z
2022-05-01T04:44:56Z,42.805,6.029,13.2997,4.60034,2470.25,2022-5-01T06:46:36Z
2022-05-01T04:47:59Z,42.805,6.029,13.2997,4.60034,2470.287,2022-5-01T06:49:39Z
2022-05-01T04:51:02Z,42.805,6.029,13.2997,4.60033,2470.287,2022-5-01T06:52:42Z
2022-05-01T04:54:05Z,42.805,6.029,13.2997,4.60035,2470.31,2022-5-01T06:55:45Z
2022-05-01T04:57:09Z,42.805,6.029,13.2997,4.60034,2470.273,2022-5-01T06:58:48Z
2022-05-01T05:00:12Z,42.805,6.029,13.2996,4.60034,2470.287,2022-5-01T07:01:51Z
2022-05-01T05:03:15Z,42.805,6.029,13.2996,4.60034,2470.31,2022-5-01T07:04:54Z
2022-05-01T05:06:18Z,42.805,6.029,13.2999,4.60034,2470.31,2022-5-01T07:07:58Z
2022-05-01T05:09:21Z,42.805,6.029,13.2998,4.60034,2470.273,2022-5-01T07:11:01Z
2022-05-01T05:12:24Z,42.805,6.029,13.2994,4.60033,2470.297,2022-5-01T07:14:04Z
2022-05-01T05:15:27Z,42.805,6.029,13.2998,4.60034,2470.343,2022-5-01T07:17:07Z
2022-05-01T05:18:30Z,42.805,6.029,13.2995,4.60036,2470.32,2022-5-01T07:20:10Z
2022-05-01T05:21:33Z,42.805,6.029,13.2996,4.60035,2470.297,2022-5-01T07:23:13Z
2022-05-01T05:24:37Z,42.805,6.029,13.2997,4.60036,2470.334,2022-5-01T07:26:16Z
2022-05-01T05:27:40Z,42.805,6.029,13.2998,4.60035,2470.334,2022-5-01T07:29:19Z
2022-05-01T05:30:43Z,42.805,6.029,13.3000,4.60034,2470.297,2022-5-01T07:32:23Z
2022-05-01T05:33:46Z,42.805,6.029,13.2997,4.60035,2470.343,2022-5-01T07:35:26Z
2022-05-01T05:36:49Z,42.805,6.029,13.2996,4.60035,2470.32,2022-5-01T07:38:29Z
2022-05-01T05:39:52Z,42.805,6.029,13.2996,4.60034,2470.32,2022-5-01T07:41:32Z
2022-05-01T05:42:55Z,42.805,6.029,13.2994,4.60035,2470.38,2022-5-01T07:44:35Z
2022-05-01T05:45:58Z,42.805,6.029,13.2996,4.60035,2470.366,2022-5-01T07:47:38Z
2022-05-01T05:49:01Z,42.805,6.029,13.2997,4.60034,2470.343,2022-5-01T07:50:41Z
2022-05-01T05:52:05Z,42.805,6.029,13.2997,4.60033,2470.357,2022-5-01T07:53:44Z
2022-05-01T05:55:08Z,42.805,6.029,13.2996,4.60035,2470.343,2022-5-01T07:56:47Z
2022-05-01T05:58:11Z,42.805,6.029,13.2997,4.60034,2470.353,2022-5-01T07:59:51Z
2022-05-01T06:01:14Z,42.805,6.029,13.2998,4.60035,2470.38,2022-5-01T08:02:54Z
2022-05-01T06:04:17Z,42.805,6.029,13.2993,4.60036,2470.38,2022-5-01T08:05:57Z
2022-05-01T06:07:20Z,42.805,6.029,13.2997,4.60034,2470.357,2022-5-01T08:09:00Z
2022-05-01T06:10:23Z,42.805,6.029,13.2998,4.60035,2470.32,2022-5-01T08:12:03Z
2022-05-01T06:13:26Z,42.805,6.029,13.2998,4.60037,2470.366,2022-5-01T08:15:06Z
2022-05-01T06:16:30Z,42.805,6.029,13.2996,4.60035,2470.343,2022-5-01T08:18:09Z
2022-05-01T06:19:33Z,42.805,6.029,13.2998,4.60035,2470.357,2022-5-01T08:21:12Z
2022-05-01T06:22:36Z,42.805,6.029,13.3000,4.60035,2470.32,2022-5-01T08:24:15Z
2022-05-01T06:25:39Z,42.805,6.029,13.2993,4.60035,2470.343,2022-5-01T08:27:19Z
2022-05-01T06:28:42Z,42.805,6.029,13.2998,4.60035,2470.343,2022-5-01T08:30:22Z
2022-05-01T06:31:45Z,42.805,6.029,13.2996,4.60036,2470.39,2022-5-01T08:33:25Z
2022-05-01T06:34:48Z,42.805,6.029,13.2997,4.60035,2470.366,2022-5-01T08:36:28Z
2022-05-01T06:37:51Z,42.805,6.029,13.2996,4.60033,2470.39,2022-5-01T08:39:31Z
2022-05-01T06:40:54Z,42.805,6.029,13.2994,4.60034,2470.366,2022-5-01T08:42:34Z
2022-05-01T06:43:58Z,42.805,6.029,13.2993,4.60035,2470.38,2022-5-01T08:45:37Z
2022-05-01T06:47:01Z,42.805,6.029,13.2996,4.60034,2470.38,2022-5-01T08:48:40Z
2022-05-01T06:50:04Z,42.805,6.029,13.2996,4.60035,2470.366,2022-5-01T08:51:44Z
2022-05-01T06:53:07Z,42.805,6.029,13.2998,4.60035,2470.366,2022-5-01T08:54:47Z
2022-05-01T06:56:10Z,42.805,6.029,13.2997,4.60035,2470.39,2022-5-01T08:57:50Z
2022-05-01T06:59:13Z,42.805,6.029,13.2994,4.60035,2470.39,2022-5-01T09:00:53Z
2022-05-01T07:02:16Z,42.805,6.029,13.2998,4.60033,2470.39,2022-5-01T09:03:56Z
2022-05-01T07:05:19Z,42.805,6.029,13.2992,4.60033,2470.404,2022-5-01T09:06:59Z
2022-05-01T07:08:23Z,42.805,6.029,13.2996,4.60034,2470.427,2022-5-01T09:10:02Z
2022-05-01T07:11:26Z,42.805,6.029,13.2997,4.60035,2470.343,2022-5-01T09:13:05Z
2022-05-01T07:14:29Z,42.805,6.029,13.2997,4.60034,2470.39,2022-5-01T09:16:08Z
2022-05-01T07:17:32Z,42.805,6.029,13.2998,4.60036,2470.404,2022-5-01T09:19:12Z
2022-05-01T07:20:35Z,42.805,6.029,13.2993,4.60035,2470.427,2022-5-01T09:22:15Z
2022-05-01T07:23:38Z,42.805,6.029,13.2996,4.60036,2470.357,2022-5-01T09:25:18Z
2022-05-01T07:26:41Z,42.805,6.029,13.2996,4.60035,2470.39,2022-5-01T09:28:21Z
2022-05-01T07:29:44Z,42.805,6.029,13.2998,4.60036,2470.366,2022-5-01T09:31:24Z
2022-05-01T07:32:47Z,42.805,6.029,13.2997,4.60035,2470.343,2022-5-01T09:34:27Z
2022-05-01T07:35:51Z,42.805,6.029,13.3000,4.60037,2470.366,2022-5-01T09:37:30Z
2022-05-01T07:38:54Z,42.805,6.029,13.2998,4.60034,2470.334,2022-5-01T09:40:33Z
2022-05-01T07:41:57Z,42.805,6.029,13.3001,4.60036,2470.404,2022-5-01T09:43:37Z
2022-05-01T07:45:00Z,42.805,6.029,13.2996,4.60036,2470.357,2022-5-01T09:46:40Z
2022-05-01T07:48:03Z,42.805,6.029,13.3000,4.60035,2470.343,2022-5-01T09:49:43Z
2022-05-01T07:51:06Z,42.805,6.029,13.3001,4.60035,2470.38,2022-5-01T09:52:46Z
2022-05-01T07:54:09Z,42.805,6.029,13.2996,4.60036,2470.38,2022-5-01T09:55:49Z
2022-05-01T07:57:12Z,42.805,6.029,13.2996,4.60036,2470.366,2022-5-01T09:58:52Z
2022-05-01T08:00:15Z,42.805,6.029,13.2998,4.60036,2470.343,2022-5-01T10:01:55Z
2022-05-01T08:03:19Z,42.805,6.029,13.2999,4.60038,2470.343,2022-5-01T10:04:58Z
2022-05-01T08:06:22Z,42.805,6.029,13.2998,4.60036,2470.366,2022-5-01T10:08:01Z
2022-05-01T08:09:25Z,42.805,6.029,13.2997,4.60037,2470.334,2022-5-01T10:11:05Z
2022-05-01T08:12:28Z,42.805,6.029,13.3001,4.60037,2470.366,2022-5-01T10:14:08Z
2022-05-01T08:15:31Z,42.805,6.029,13.2999,4.60035,2470.357,2022-5-01T10:17:11Z
2022-05-01T08:18:34Z,42.805,6.029,13.2995,4.60035,2470.38,2022-5-01T10:20:14Z
2022-05-01T08:21:37Z,42.805,6.029,13.2995,4.60034,2470.343,2022-5-01T10:23:17Z
2022-05-01T08:24:40Z,42.805,6.029,13.2996,4.60035,2470.366,2022-5-01T10:26:20Z
2022-05-01T08:27:44Z,42.805,6.029,13.3000,4.60035,2470.366,2022-5-01T10:29:23Z
2022-05-01T08:30:47Z,42.805,6.029,13.2995,4.60034,2470.366,2022-5-01T10:32:26Z
2022-05-01T08:33:50Z,42.805,6.029,13.2998,4.60034,2470.343,2022-5-01T10:35:30Z
2022-05-01T08:36:53Z,42.805,6.029,13.2994,4.60034,2470.343,2022-5-01T10:38:33Z
2022-05-01T08:39:56Z,42.805,6.029,13.2999,4.60034,2470.357,2022-5-01T10:41:36Z
2022-05-01T08:42:59Z,42.805,6.029,13.2998,4.60036,2470.39,2022-5-01T10:44:39Z
2022-05-01T08:46:02Z,42.805,6.029,13.2998,4.60035,2470.366,2022-5-01T10:47:42Z
2022-05-01T08:49:05Z,42.805,6.029,13.2992,4.60035,2470.366,2022-5-01T10:50:45Z
2022-05-01T08:52:09Z,42.805,6.029,13.2998,4.60035,2470.334,2022-5-01T10:53:48Z
2022-05-01T08:55:12Z,42.805,6.029,13.3000,4.60035,2470.357,2022-5-01T10:56:51Z
2022-05-01T08:58:15Z,42.805,6.029,13.2993,4.60036,2470.343,2022-5-01T10:59:55Z
2022-05-01T09:01:18Z,42.805,6.029,13.2996,4.60036,2470.31,2022-5-01T11:02:58Z
2022-05-01T09:04:21Z,42.805,6.029,13.3000,4.60035,2470.343,2022-5-01T11:06:01Z
2022-05-01T09:07:24Z,42.805,6.029,13.2999,4.60034,2470.334,2022-5-01T11:09:04Z
2022-05-01T09:10:27Z,42.805,6.029,13.2993,4.60034,2470.32,2022-5-01T11:12:07Z
2022-05-01T09:13:30Z,42.805,6.029,13.2996,4.60033,2470.32,2022-5-01T11:15:10Z
2022-05-01T09:16:33Z,42.805,6.029,13.2997,4.60036,2470.334,2022-5-01T11:18:13Z
2022-05-01T09:19:37Z,42.805,6.029,13.2995,4.60036,2470.343,2022-5-01T11:21:16Z
2022-05-01T09:22:40Z,42.805,6.029,13.2996,4.60036,2470.32,2022-5-01T11:24:19Z
2022-05-01T09:25:43Z,42.805,6.029,13.2998,4.60035,2470.297,2022-5-01T11:27:23Z
2022-05-01T09:28:46Z,42.805,6.029,13.2997,4.60035,2470.32,2022-5-01T11:30:26Z
2022-05-01T09:31:49Z,42.805,6.029,13.2996,4.60034,2470.31,2022-5-01T11:33:29Z
2022-05-01T09:34:52Z,42.805,6.029,13.2996,4.60037,2470.32,2022-5-01T11:36:32Z
2022-05-01T09:37:55Z,42.805,6.029,13.2996,4.60035,2470.283,2022-5-01T11:39:35Z
2022-05-01T09:40:58Z,42.805,6.029,13.2997,4.60036,2470.297,2022-5-01T11:42:38Z
2022-05-01T09:44:02Z,42.805,6.029,13.2998,4.60036,2470.273,2022-5-01T11:45:41Z
2022-05-01T09:47:05Z,42.805,6.029,13.2998,4.60034,2470.297,2022-5-01T11:48:44Z
2022-05-01T09:50:08Z,42.805,6.029,13.2998,4.60035,2470.297,2022-5-01T11:51:48Z
2022-05-01T09:53:11Z,42.805,6.029,13.2993,4.60035,2470.297,2022-5-01T11:54:51Z
2022-05-01T09:56:14Z,42.805,6.029,13.2998,4.60035,2470.32,2022-5-01T11:57:54Z
2022-05-01T09:59:17Z,42.805,6.029,13.3000,4.60036,2470.31,2022-5-01T12:00:57Z
2022-05-01T10:02:20Z,42.805,6.029,13.2996,4.60035,2470.32,2022-5-01T12:04:00Z
2022-05-01T10:05:23Z,42.805,6.029,13.2996,4.60035,2470.297,2022-5-01T12:07:03Z
2022-05-01T10:08:27Z,42.805,6.029,13.2996,4.60036,2470.297,2022-5-01T12:10:06Z
2022-05-01T10:11:30Z,42.805,6.029,13.2999,4.60034,2470.273,2022-5-01T12:13:09Z
2022-05-01T10:14:33Z,42.805,6.029,13.2996,4.60034,2470.264,2022-5-01T12:16:13Z
2022-05-01T10:17:36Z,42.805,6.029,13.2998,4.60034,2470.25,2022-5-01T12:19:16Z
2022-05-01T10:20:39Z,42.805,6.029,13.2998,4.60035,2470.31,2022-5-01T12:22:19Z
2022-05-01T10:23:42Z,42.805,6.029,13.3001,4.60034,2470.273,2022-5-01T12:25:22Z
2022-05-01T10:26:45Z,42.805,6.029,13.2995,4.60035,2470.273,2022-5-01T12:28:25Z
2022-05-01T10:29:48Z,42.805,6.029,13.3001,4.60035,2470.297,2022-5-01T12:31:28Z
2022-05-01T10:32:51Z,42.805,6.029,13.2996,4.60036,2470.31,2022-5-01T12:34:31Z
2022-05-01T10:35:55Z,42.805,6.029,13.2998,4.60034,2470.287,2022-5-01T12:37:34Z
2022-05-01T10:38:58Z,42.805,6.029,13.2997,4.60035,2470.264,2022-5-01T12:40:38Z
2022-05-01T10:42:01Z,42.805,6.029,13.2998,4.60035,2470.273,2022-5-01T12:43:41Z
2022-05-01T10:45:04Z,42.805,6.029,13.3000,4.60035,2470.273,2022-5-01T12:46:44Z
2022-05-01T10:48:07Z,42.805,6.029,13.2999,4.60035,2470.297,2022-5-01T12:49:47Z
2022-05-01T10:51:10Z,42.805,6.029,13.2996,4.60034,2470.273,2022-5-01T12:52:50Z
2022-05-01T10:54:13Z,42.805,6.029,13.2995,4.60035,2470.25,2022-5-01T12:55:53Z
2022-05-01T10:57:16Z,42.805,6.029,13.2996,4.60036,2470.25,2022-5-01T12:58:56Z
2022-05-01T11:00:20Z,42.805,6.029,13.2998,4.60034,2470.24,2022-5-01T13:01:59Z
2022-05-01T11:03:23Z,42.805,6.029,13.2998,4.60034,2470.273,2022-5-01T13:05:02Z
2022-05-01T11:06:26Z,42.805,6.029,13.2997,4.60033,2470.264,2022-5-01T13:08:06Z
2022-05-01T11:09:29Z,42.805,6.029,13.2999,4.60035,2470.264,2022-5-01T13:11:09Z
2022-05-01T11:12:32Z,42.805,6.029,13.2998,4.60035,2470.25,2022-5-01T13:14:12Z
2022-05-01T11:15:35Z,42.805,6.029,13.2996,4.60035,2470.24,2022-5-01T13:17:15Z
2022-05-01T11:18:38Z,42.805,6.029,13.2996,4.60034,2470.25,2022-5-01T13:20:18Z
2022-05-01T11:21:41Z,42.805,6.029,13.2999,4.60034,2470.227,2022-5-01T13:23:21Z
2022-05-01T11:24:45Z,42.805,6.029,13.3001,4.60034,2470.273,2022-5-01T13:26:24Z
2022-05-01T11:27:48Z,42.805,6.029,13.2993,4.60036,2470.227,2022-5-01T13:29:27Z
2022-05-01T11:30:51Z,42.805,6.029,13.2996,4.60033,2470.24,2022-5-01T13:32:31Z
2022-05-01T11:33:54Z,42.805,6.029,13.2993,4.60033,2470.25,2022-5-01T13:35:34Z
2022-05-01T11:36:57Z,42.805,6.029,13.2998,4.60035,2470.24,2022-5-01T13:38:37Z
2022-05-01T11:40:00Z,42.805,6.029,13.2996,4.60035,2470.236,2022-5-01T13:41:40Z
2022-05-01T11:43:03Z,42.805,6.029,13.2996,4.60035,2470.203,2022-5-01T13:44:43Z
2022-05-01T11:46:06Z,42.805,6.029,13.2998,4.60036,2470.227,2022-5-01T13:47:46Z
2022-05-01T11:49:10Z,42.805,6.029,13.2998,4.60034,2470.24,2022-5-01T13:50:49Z
2022-05-01T11:52:13Z,42.805,6.029,13.2996,4.60035,2470.227,2022-5-01T13:53:52Z
2022-05-01T11:55:16Z,42.805,6.029,13.2996,4.60034,2470.203,2022-5-01T13:56:56Z
2022-05-01T11:58:19Z,42.805,6.029,13.2994,4.60034,2470.217,2022-5-01T13:59:59Z
2022-05-01T12:01:22Z,42.805,6.029,13.3000,4.60033,2470.227,2022-5-01T14:03:02Z
2022-05-01T12:04:25Z,42.805,6.029,13.2994,4.60036,2470.24,2022-5-01T14:06:05Z
2022-05-01T12:07:28Z,42.805,6.029,13.2995,4.60036,2470.227,2022-5-01T14:09:08Z
2022-05-01T12:10:31Z,42.805,6.029,13.2998,4.60033,2470.203,2022-5-01T14:12:11Z
2022-05-01T12:13:35Z,42.805,6.029,13.3000,4.60033,2470.18,2022-5-01T14:15:14Z
2022-05-01T12:16:38Z,42.805,6.029,13.2998,4.60035,2470.203,2022-5-01T14:18:17Z
2022-05-01T12:19:41Z,42.805,6.029,13.2997,4.60033,2470.18,2022-5-01T14:21:21Z
2022-05-01T12:22:44Z,42.805,6.029,13.2995,4.60033,2470.194,2022-5-01T14:24:24Z
2022-05-01T12:25:47Z,42.805,6.029,13.2994,4.60034,2470.18,2022-5-01T14:27:27Z
2022-05-01T12:28:50Z,42.805,6.029,13.2994,4.60036,2470.217,2022-5-01T14:30:30Z
2022-05-01T12:31:53Z,42.805,6.029,13.2998,4.60033,2470.203,2022-5-01T14:33:33Z
2022-05-01T12:34:56Z,42.805,6.029,13.2996,4.60034,2470.203,2022-5-01T14:36:36Z
2022-05-01T12:38:00Z,42.805,6.029,13.2997,4.60034,2470.194,2022-5-01T14:39:39Z
2022-05-01T12:41:03Z,42.805,6.029,13.2995,4.60034,2470.194,2022-5-01T14:42:42Z
2022-05-01T12:44:06Z,42.805,6.029,13.2996,4.60033,2470.217,2022-5-01T14:45:46Z
2022-05-01T12:47:09Z,42.805,6.029,13.2996,4.60034,2470.147,2022-5-01T14:48:49Z
2022-05-01T12:50:12Z,42.805,6.029,13.2994,4.60035,2470.156,2022-5-01T14:51:52Z
2022-05-01T12:53:15Z,42.805,6.029,13.2996,4.60034,2470.143,2022-5-01T14:54:55Z
2022-05-01T12:56:18Z,42.805,6.029,13.2999,4.60034,2470.18,2022-5-01T14:57:58Z
2022-05-01T12:59:21Z,42.805,6.029,13.2996,4.60035,2470.203,2022-5-01T15:01:01Z
2022-05-01T13:02:24Z,42.805,6.029,13.2993,4.60035,2470.171,2022-5-01T15:04:04Z
2022-05-01T13:05:28Z,42.805,6.029,13.2996,4.60033,2470.203,2022-5-01T15:07:07Z
2022-05-01T13:08:31Z,42.805,6.029,13.2994,4.60033,2470.156,2022-5-01T15:10:10Z
2022-05-01T13:11:34Z,42.805,6.029,13.3000,4.60033,2470.194,2022-5-01T15:13:14Z
2022-05-01T13:14:37Z,42.805,6.029,13.2998,4.60033,2470.171,2022-5-01T15:16:17Z
2022-05-01T13:17:40Z,42.805,6.029,13.2993,4.60034,2470.156,2022-5-01T15:19:20Z
2022-05-01T13:20:43Z,42.805,6.029,13.2997,4.60034,2470.194,2022-5-01T15:22:23Z
2022-05-01T13:23:46Z,42.805,6.029,13.2999,4.60033,2470.156,2022-5-01T15:25:26Z
2022-05-01T13:26:49Z,42.805,6.029,13.2995,4.60033,2470.147,2022-5-01T15:28:29Z
2022-05-01T13:29:53Z,42.805,6.029,13.2998,4.60034,2470.18,2022-5-01T15:31:32Z
2022-05-01T13:32:56Z,42.805,6.029,13.2995,4.60034,2470.18,2022-5-01T15:34:35Z
2022-05-01T13:35:59Z,42.805,6.029,13.2996,4.60035,2470.156,2022-5-01T15:37:39Z
2022-05-01T13:39:02Z,42.805,6.029,13.2995,4.60034,2470.133,2022-5-01T15:40:42Z
2022-05-01T13:42:05Z,42.805,6.029,13.2998,4.60033,2470.133,2022-5-01T15:43:45Z
2022-05-01T13:45:08Z,42.805,6.029,13.2996,4.60033,2470.156,2022-5-01T15:46:48Z
2022-05-01T13:48:11Z,42.805,6.029,13.2997,4.60033,2470.133,2022-5-01T15:49:51Z
2022-05-01T13:51:14Z,42.805,6.029,13.2997,4.60033,2470.133,2022-5-01T15:52:54Z
2022-05-01T13:54:18Z,42.805,6.029,13.2997,4.60034,2470.133,2022-5-01T15:55:57Z
2022-05-01T13:57:21Z,42.805,6.029,13.2999,4.60033,2470.171,2022-5-01T15:59:00Z
2022-05-01T14:00:24Z,42.805,6.029,13.2999,4.60034,2470.133,2022-5-01T16:02:04Z
2022-05-01T14:03:27Z,42.805,6.029,13.2998,4.60034,2470.147,2022-5-01T16:05:07Z
2022-05-01T14:06:30Z,42.805,6.029,13.2996,4.60033,2470.133,2022-5-01T16:08:10Z
2022-05-01T14:09:33Z,42.805,6.029,13.3000,4.60034,2470.11,2022-5-01T16:11:13Z
2022-05-01T14:12:36Z,42.805,6.029,13.2998,4.60034,2470.124,2022-5-01T16:14:16Z
2022-05-01T14:15:39Z,42.805,6.029,13.2998,4.60034,2470.124,2022-5-01T16:17:19Z
2022-05-01T14:18:43Z,42.805,6.029,13.2999,4.60034,2470.133,2022-5-01T16:20:22Z
2022-05-01T14:21:46Z,42.805,6.029,13.3000,4.60034,2470.133,2022-5-01T16:23:25Z
2022-05-01T14:24:49Z,42.805,6.029,13.2996,4.60033,2470.171,2022-5-01T16:26:29Z
2022-05-01T14:27:52Z,42.805,6.029,13.2996,4.60033,2470.119,2022-5-01T16:29:32Z
2022-05-01T14:30:55Z,42.805,6.029,13.2998,4.60033,2470.124,2022-5-01T16:32:35Z
2022-05-01T14:33:58Z,42.805,6.029,13.2997,4.60033,2470.133,2022-5-01T16:35:38Z
2022-05-01T14:37:01Z,42.805,6.029,13.2998,4.60033,2470.147,2022-5-01T16:38:41Z
2022-05-01T14:40:04Z,42.805,6.029,13.3000,4.60033,2470.124,2022-5-01T16:41:44Z
2022-05-01T14:43:08Z,42.805,6.029,13.2996,4.60033,2470.087,2022-5-01T16:44:47Z
2022-05-01T14:46:11Z,42.805,6.029,13.2998,4.60033,2470.119,2022-5-01T16:47:50Z
2022-05-01T14:49:14Z,42.805,6.029,13.2991,4.60033,2470.11,2022-5-01T16:50:53Z
2022-05-01T14:52:17Z,42.805,6.029,13.2997,4.60034,2470.133,2022-5-01T16:53:57Z
2022-05-01T14:55:20Z,42.805,6.029,13.2997,4.60033,2470.087,2022-5-01T16:57:00Z
2022-05-01T14:58:23Z,42.805,6.029,13.2995,4.60035,2470.11,2022-5-01T17:00:03Z
2022-05-01T15:01:26Z,42.805,6.029,13.2996,4.60033,2470.133,2022-5-01T17:03:06Z
2022-05-01T15:04:29Z,42.805,6.029,13.2998,4.60035,2470.147,2022-5-01T17:06:09Z
2022-05-01T15:07:32Z,42.805,6.029,13.3000,4.60036,2470.147,2022-5-01T17:09:12Z
2022-05-01T15:10:36Z,42.805,6.029,13.2996,4.60034,2470.11,2022-5-01T17:12:15Z